Time,TemperatureF,DewpointF,PressureIn,WindDirection,WindDirectionDegrees,WindSpeedMPH,WindSpeedGustMPH,Humidity,HourlyPrecipIn,Conditions,Clouds,dailyrainin,SoftwareType,DateUTC
2013-09-18 00:00:00,70.0,0.0,29.74,ENE,70,5.0,10.0,37,-99.99,,,-99.99,,2013-09-18 07:00:00,
2013-09-18 00:08:00,70.0,0.0,29.74,NE,54,2.0,10.0,36,-99.99,,,-99.99,,2013-09-18 07:08:00,
2013-09-18 00:16:00,70.0,0.0,29.74,ENE,68,5.0,10.0,39,-99.99,,,-99.99,,2013-09-18 07:16:00,
2013-09-18 00:24:00,70.0,0.0,29.74,East,86,3.0,10.0,36,-99.99,,,-99.99,,2013-09-18 07:24:00,
2013-09-18 00:32:00,70.0,0.0,29.74,East,80,6.0,8.0,35,-99.99,,,-99.99,,2013-09-18 07:32:00,
2013-09-18 00:40:00,70.0,0.0,29.74,ENE,78,6.0,7.0,36,-99.99,,,-99.99,,2013-09-18 07:40:00,
2013-09-18 00:48:00,70.0,0.0,29.74,East,101,8.0,12.0,37,-99.99,,,-99.99,,2013-09-18 07:48:00,
2013-09-18 00:56:00,70.0,0.0,29.74,East,84,5.0,12.0,37,-99.99,,,-99.99,,2013-09-18 07:56:00,
2013-09-18 01:04:00,69.0,0.0,29.74,East,86,3.0,8.0,39,-99.99,,,-99.99,,2013-09-18 08:04:00,
2013-09-18 01:12:00,69.0,0.0,29.74,East,94,5.0,7.0,38,-99.99,,,-99.99,,2013-09-18 08:12:00,
2013-09-18 01:20:00,68.0,0.0,29.74,ESE,102,6.0,9.0,39,-99.99,,,-99.99,,2013-09-18 08:20:00,
2013-09-18 01:28:00,68.0,0.0,29.74,SE,131,5.0,9.0,40,-99.99,,,-99.99,,2013-09-18 08:28:00,
2013-09-18 01:36:00,68.0,0.0,29.74,ESE,121,5.0,9.0,41,-99.99,,,-99.99,,2013-09-18 08:36:00,
2013-09-18 01:44:00,68.0,0.0,29.74,East,96,6.0,12.0,39,-99.99,,,-99.99,,2013-09-18 08:44:00,
2013-09-18 01:52:00,68.0,0.0,29.74,East,89,7.0,12.0,40,-99.99,,,-99.99,,2013-09-18 08:52:00,
2013-09-18 02:00:00,68.0,0.0,29.75,East,96,3.0,12.0,41,-99.99,,,-99.99,,2013-09-18 09:00:00,
2013-09-18 02:08:00,67.0,0.0,29.75,ENE,66,5.0,9.0,41,-99.99,,,-99.99,,2013-09-18 09:08:00,
2013-09-18 02:16:00,67.0,0.0,29.75,ENE,65,5.0,5.0,40,-99.99,,,-99.99,,2013-09-18 09:16:00,
2013-09-18 02:24:00,66.0,0.0,29.75,East,94,5.0,5.0,40,-99.99,,,-99.99,,2013-09-18 09:24:00,
2013-09-18 02:32:00,67.0,0.0,29.75,East,84,3.0,6.0,38,-99.99,,,-99.99,,2013-09-18 09:32:00,
2013-09-18 02:40:00,67.0,0.0,29.75,East,90,3.0,6.0,39,-99.99,,,-99.99,,2013-09-18 09:40:00,
2013-09-18 02:48:00,68.0,0.0,29.75,East,84,3.0,5.0,37,-99.99,,,-99.99,,2013-09-18 09:48:00,
2013-09-18 02:56:00,68.0,0.0,29.75,ENE,62,3.0,5.0,37,-99.99,,,-99.99,,2013-09-18 09:56:00,
2013-09-18 03:04:00,68.0,0.0,29.75,ENE,61,3.0,3.0,38,-99.99,,,-99.99,,2013-09-18 10:04:00,
2013-09-18 03:12:00,68.0,0.0,29.75,ENE,63,2.0,5.0,38,-99.99,,,-99.99,,2013-09-18 10:12:00,
2013-09-18 03:20:00,68.0,0.0,29.75,NE,47,3.0,5.0,39,-99.99,,,-99.99,,2013-09-18 10:20:00,
2013-09-18 03:28:00,67.0,0.0,29.75,WNW,302,2.0,5.0,38,-99.99,,,-99.99,,2013-09-18 10:28:00,
2013-09-18 03:32:00,67.0,0.0,29.75,WSW,241,7.0,7.0,39,-99.99,,,-99.99,,2013-09-18 10:32:00,
2013-09-18 05:32:00,65.0,0.0,29.78,NE,47,3.0,5.0,40,-99.99,,,-99.99,,2013-09-18 12:32:00,
2013-09-18 05:40:00,64.0,0.0,29.79,NNE,26,1.0,3.0,41,-99.99,,,-99.99,,2013-09-18 12:40:00,
2013-09-18 05:48:00,64.0,0.0,29.79,NE,50,2.0,2.0,41,-99.99,,,-99.99,,2013-09-18 12:48:00,
2013-09-18 05:56:00,64.0,0.0,29.79,East,79,1.0,2.0,43,-99.99,,,-99.99,,2013-09-18 12:56:00,
2013-09-18 06:04:00,64.0,0.0,29.80,ENE,71,1.0,2.0,42,-99.99,,,-99.99,,2013-09-18 13:04:00,
2013-09-18 06:12:00,65.0,0.0,29.80,North,4,1.0,2.0,42,-99.99,,,-99.99,,2013-09-18 13:12:00,
2013-09-18 06:20:00,66.0,0.0,29.80,WNW,292,1.0,2.0,40,-99.99,,,-99.99,,2013-09-18 13:20:00,
2013-09-18 06:28:00,66.0,0.0,29.80,West,276,3.0,3.0,40,-99.99,,,-99.99,,2013-09-18 13:28:00,
2013-09-18 06:36:00,66.0,0.0,29.81,WSW,249,0.0,3.0,42,-99.99,,,-99.99,,2013-09-18 13:36:00,
2013-09-18 06:44:00,67.0,0.0,29.81,SSW,207,2.0,3.0,43,-99.99,,,-99.99,,2013-09-18 13:44:00,
2013-09-18 06:52:00,67.0,0.0,29.82,South,182,0.0,2.0,41,-99.99,,,-99.99,,2013-09-18 13:52:00,
2013-09-18 07:00:00,66.0,0.0,29.82,SE,126,1.0,1.0,42,-99.99,,,-99.99,,2013-09-18 14:00:00,
2013-09-18 07:08:00,65.0,0.0,29.82,SE,126,0.0,1.0,44,-99.99,,,-99.99,,2013-09-18 14:08:00,
2013-09-18 07:16:00,65.0,0.0,29.82,East,85,0.0,0.0,43,-99.99,,,-99.99,,2013-09-18 14:16:00,
2013-09-18 07:21:00,66.0,0.0,29.83,West,274,2.0,2.0,43,-99.99,,,-99.99,,2013-09-18 14:21:00,
2013-09-18 07:28:00,66.0,0.0,29.83,West,274,1.0,2.0,42,-99.99,,,-99.99,,2013-09-18 14:28:00,
2013-09-18 07:36:00,67.0,0.0,29.83,SSW,209,2.0,2.0,41,-99.99,,,-99.99,,2013-09-18 14:36:00,
2013-09-18 07:44:00,67.0,0.0,29.83,South,180,0.0,3.0,42,-99.99,,,-99.99,,2013-09-18 14:44:00,
2013-09-18 07:52:00,67.0,0.0,29.83,SSE,162,3.0,3.0,41,-99.99,,,-99.99,,2013-09-18 14:52:00,
2013-09-18 07:57:00,68.0,0.0,29.83,SSE,156,2.0,3.0,41,-99.99,,,-99.99,,2013-09-18 14:57:00,
2013-09-18 08:04:00,68.0,0.0,29.83,South,176,3.0,5.0,40,-99.99,,,-99.99,,2013-09-18 15:04:00,
2013-09-18 08:12:00,69.0,0.0,29.84,South,187,3.0,5.0,39,-99.99,,,-99.99,,2013-09-18 15:12:00,
2013-09-18 08:20:00,69.0,0.0,29.84,South,177,5.0,6.0,41,-99.99,,,-99.99,,2013-09-18 15:20:00,
2013-09-18 08:28:00,70.0,0.0,29.84,SSW,197,3.0,6.0,38,-99.99,,,-99.99,,2013-09-18 15:28:00,
2013-09-18 08:36:00,70.0,0.0,29.84,SSW,205,5.0,6.0,36,-99.99,,,-99.99,,2013-09-18 15:36:00,
2013-09-18 08:44:00,71.0,0.0,29.84,SW,222,5.0,6.0,34,-99.99,,,-99.99,,2013-09-18 15:44:00,
2013-09-18 08:52:00,71.0,0.0,29.84,South,179,5.0,6.0,34,-99.99,,,-99.99,,2013-09-18 15:52:00,
2013-09-18 09:00:00,71.0,0.0,29.85,SSW,196,2.0,5.0,32,-99.99,,,-99.99,,2013-09-18 16:00:00,
2013-09-18 09:04:00,72.0,0.0,29.85,SSE,165,2.0,5.0,34,-99.99,,,-99.99,,2013-09-18 16:04:00,
2013-09-18 09:12:00,73.0,0.0,29.85,South,175,1.0,5.0,28,-99.99,,,-99.99,,2013-09-18 16:12:00,
2013-09-18 09:20:00,74.0,0.0,29.85,South,173,3.0,6.0,30,-99.99,,,-99.99,,2013-09-18 16:20:00,
2013-09-18 09:28:00,75.0,0.0,29.85,SSE,162,2.0,6.0,29,-99.99,,,-99.99,,2013-09-18 16:28:00,
2013-09-18 09:36:00,75.0,0.0,29.85,SSE,160,5.0,6.0,25,-99.99,,,-99.99,,2013-09-18 16:36:00,
2013-09-18 09:44:00,76.0,0.0,29.85,ESE,107,2.0,5.0,23,-99.99,,,-99.99,,2013-09-18 16:44:00,
2013-09-18 09:52:00,76.0,0.0,29.85,SE,145,0.0,5.0,24,-99.99,,,-99.99,,2013-09-18 16:52:00,
2013-09-18 10:00:00,76.0,0.0,29.85,SSW,196,3.0,7.0,23,-99.99,,,-99.99,,2013-09-18 17:00:00,
2013-09-18 10:08:00,77.0,0.0,29.84,SE,134,2.0,7.0,26,-99.99,,,-99.99,,2013-09-18 17:08:00,
2013-09-18 10:13:00,79.0,0.0,29.85,South,174,5.0,7.0,24,-99.99,,,-99.99,,2013-09-18 17:13:00,
2013-09-18 10:20:00,78.0,0.0,29.85,SE,145,3.0,10.0,23,-99.99,,,-99.99,,2013-09-18 17:20:00,
2013-09-18 10:28:00,79.0,0.0,29.85,South,178,5.0,12.0,23,-99.99,,,-99.99,,2013-09-18 17:28:00,
2013-09-18 10:36:00,79.0,0.0,29.85,SSE,147,8.0,14.0,24,-99.99,,,-99.99,,2013-09-18 17:36:00,
2013-09-18 10:44:00,80.0,0.0,29.85,SSE,152,9.0,13.0,23,-99.99,,,-99.99,,2013-09-18 17:44:00,
2013-09-18 10:52:00,80.0,0.0,29.85,South,172,7.0,13.0,21,-99.99,,,-99.99,,2013-09-18 17:52:00,
2013-09-18 11:00:00,81.0,0.0,29.85,ESE,107,5.0,12.0,23,-99.99,,,-99.99,,2013-09-18 18:00:00,
2013-09-18 11:08:00,82.0,0.0,29.85,SSE,147,7.0,12.0,20,-99.99,,,-99.99,,2013-09-18 18:08:00,
2013-09-18 11:16:00,82.0,0.0,29.84,SE,144,5.0,10.0,20,-99.99,,,-99.99,,2013-09-18 18:16:00,
2013-09-18 11:24:00,82.0,0.0,29.85,SE,143,9.0,14.0,20,-99.99,,,-99.99,,2013-09-18 18:24:00,
2013-09-18 11:32:00,83.0,0.0,29.84,SSE,162,9.0,14.0,20,-99.99,,,-99.99,,2013-09-18 18:32:00,
2013-09-18 11:40:00,83.0,0.0,29.84,SE,143,8.0,12.0,18,-99.99,,,-99.99,,2013-09-18 18:40:00,
2013-09-18 11:45:00,84.0,0.0,29.84,ESE,104,3.0,12.0,21,-99.99,,,-99.99,,2013-09-18 18:45:00,
2013-09-18 11:52:00,85.0,0.0,29.84,ESE,103,5.0,12.0,18,-99.99,,,-99.99,,2013-09-18 18:52:00,
2013-09-18 12:00:00,85.0,0.0,29.85,South,173,1.0,10.0,18,-99.99,,,-99.99,,2013-09-18 19:00:00,
2013-09-18 12:08:00,86.0,0.0,29.85,East,97,3.0,9.0,19,-99.99,,,-99.99,,2013-09-18 19:08:00,
2013-09-18 12:13:00,84.0,0.0,29.84,SSE,162,5.0,12.0,18,-99.99,,,-99.99,,2013-09-18 19:13:00,
2013-09-18 12:20:00,86.0,0.0,29.84,SSE,167,5.0,12.0,17,-99.99,,,-99.99,,2013-09-18 19:20:00,
2013-09-18 12:28:00,87.0,0.0,29.84,SSE,161,12.0,12.0,17,-99.99,,,-99.99,,2013-09-18 19:28:00,
2013-09-18 12:36:00,85.0,0.0,29.84,SSE,150,9.0,14.0,19,-99.99,,,-99.99,,2013-09-18 19:36:00,
2013-09-18 12:44:00,88.0,0.0,29.83,ESE,103,10.0,12.0,15,-99.99,,,-99.99,,2013-09-18 19:44:00,
2013-09-18 12:52:00,89.0,0.0,29.83,South,189,10.0,12.0,15,-99.99,,,-99.99,,2013-09-18 19:52:00,
2013-09-18 13:00:00,88.0,0.0,29.83,SE,135,5.0,12.0,16,-99.99,,,-99.99,,2013-09-18 20:00:00,
2013-09-18 13:08:00,89.0,0.0,29.83,East,95,3.0,14.0,15,-99.99,,,-99.99,,2013-09-18 20:08:00,
2013-09-18 13:16:00,86.0,0.0,29.83,SSE,165,3.0,15.0,17,-99.99,,,-99.99,,2013-09-18 20:16:00,
2013-09-18 13:24:00,90.0,0.0,29.83,ESE,113,5.0,14.0,15,-99.99,,,-99.99,,2013-09-18 20:24:00,
2013-09-18 13:32:00,87.0,0.0,29.82,SE,138,2.0,12.0,16,-99.99,,,-99.99,,2013-09-18 20:32:00,
2013-09-18 13:40:00,90.0,0.0,29.82,SE,134,7.0,13.0,14,-99.99,,,-99.99,,2013-09-18 20:40:00,
2013-09-18 13:45:00,89.0,0.0,29.81,SSE,157,12.0,18.0,17,-99.99,,,-99.99,,2013-09-18 20:45:00,
2013-09-18 13:52:00,90.0,0.0,29.81,ESE,119,5.0,18.0,14,-99.99,,,-99.99,,2013-09-18 20:52:00,
2013-09-18 13:57:00,90.0,0.0,29.81,South,180,8.0,12.0,14,-99.99,,,-99.99,,2013-09-18 20:57:00,
2013-09-18 14:04:00,90.0,0.0,29.81,SSW,205,3.0,12.0,15,-99.99,,,-99.99,,2013-09-18 21:04:00,
2013-09-18 14:12:00,90.0,0.0,29.80,SSE,162,9.0,20.0,16,-99.99,,,-99.99,,2013-09-18 21:12:00,
2013-09-18 14:20:00,87.0,0.0,29.80,SW,235,3.0,20.0,16,-99.99,,,-99.99,,2013-09-18 21:20:00,
2013-09-18 14:28:00,91.0,0.0,29.80,SE,144,7.0,17.0,14,-99.99,,,-99.99,,2013-09-18 21:28:00,
2013-09-18 14:36:00,92.0,0.0,29.80,SE,141,2.0,12.0,15,-99.99,,,-99.99,,2013-09-18 21:36:00,
2013-09-18 14:44:00,93.0,0.0,29.80,NE,55,6.0,10.0,13,-99.99,,,-99.99,,2013-09-18 21:44:00,
2013-09-18 14:49:00,93.0,0.0,29.80,SSE,148,5.0,10.0,14,-99.99,,,-99.99,,2013-09-18 21:49:00,
2013-09-18 14:56:00,92.0,0.0,29.80,SSE,161,3.0,9.0,16,-99.99,,,-99.99,,2013-09-18 21:56:00,
2013-09-18 15:01:00,90.0,0.0,29.80,South,189,9.0,17.0,15,-99.99,,,-99.99,,2013-09-18 22:01:00,
2013-09-18 15:08:00,92.0,0.0,29.80,South,180,9.0,17.0,14,-99.99,,,-99.99,,2013-09-18 22:08:00,
2013-09-18 15:16:00,94.0,0.0,29.79,ESE,114,3.0,14.0,14,-99.99,,,-99.99,,2013-09-18 22:16:00,
2013-09-18 15:24:00,91.0,0.0,29.79,South,173,8.0,14.0,15,-99.99,,,-99.99,,2013-09-18 22:24:00,
2013-09-18 15:32:00,92.0,0.0,29.79,SE,138,3.0,14.0,15,-99.99,,,-99.99,,2013-09-18 22:32:00,
2013-09-18 15:40:00,93.0,0.0,29.79,South,176,12.0,15.0,15,-99.99,,,-99.99,,2013-09-18 22:40:00,
2013-09-18 15:48:00,92.0,0.0,29.79,South,172,6.0,15.0,17,-99.99,,,-99.99,,2013-09-18 22:48:00,
2013-09-18 15:56:00,92.0,0.0,29.78,ESE,110,5.0,13.0,16,-99.99,,,-99.99,,2013-09-18 22:56:00,
2013-09-18 16:04:00,94.0,0.0,29.78,East,99,2.0,10.0,14,-99.99,,,-99.99,,2013-09-18 23:04:00,
2013-09-18 16:12:00,94.0,0.0,29.78,SSE,153,5.0,10.0,14,-99.99,,,-99.99,,2013-09-18 23:12:00,
2013-09-18 16:20:00,93.0,0.0,29.78,SSE,157,9.0,15.0,17,-99.99,,,-99.99,,2013-09-18 23:20:00,
2013-09-18 16:25:00,92.0,0.0,29.78,SE,139,2.0,15.0,17,-99.99,,,-99.99,,2013-09-18 23:25:00,
2013-09-18 16:32:00,91.0,0.0,29.78,SSE,156,9.0,16.0,17,-99.99,,,-99.99,,2013-09-18 23:32:00,
2013-09-18 16:37:00,89.0,0.0,29.78,SSE,156,5.0,16.0,16,-99.99,,,-99.99,,2013-09-18 23:37:00,
2013-09-18 16:44:00,90.0,0.0,29.78,SSE,147,3.0,13.0,17,-99.99,,,-99.99,,2013-09-18 23:44:00,
2013-09-18 16:52:00,91.0,0.0,29.78,SE,131,8.0,15.0,15,-99.99,,,-99.99,,2013-09-18 23:52:00,
2013-09-18 17:00:00,91.0,0.0,29.78,SSE,155,8.0,13.0,16,-99.99,,,-99.99,,2013-09-19 00:00:00,
2013-09-18 17:08:00,92.0,0.0,29.78,SSE,152,10.0,15.0,18,-99.99,,,-99.99,,2013-09-19 00:08:00,
2013-09-18 17:16:00,90.0,0.0,29.78,SSE,163,6.0,15.0,16,-99.99,,,-99.99,,2013-09-19 00:16:00,
2013-09-18 17:24:00,91.0,0.0,29.78,SSE,154,7.0,15.0,15,-99.99,,,-99.99,,2013-09-19 00:24:00,
2013-09-18 17:32:00,91.0,0.0,29.78,SSE,161,5.0,12.0,16,-99.99,,,-99.99,,2013-09-19 00:32:00,
2013-09-18 17:37:00,91.0,0.0,29.78,SE,132,5.0,13.0,19,-99.99,,,-99.99,,2013-09-19 00:37:00,
2013-09-18 17:44:00,91.0,0.0,29.78,SSE,157,6.0,10.0,17,-99.99,,,-99.99,,2013-09-19 00:44:00,
2013-09-18 17:52:00,90.0,0.0,29.78,SSE,154,7.0,16.0,16,-99.99,,,-99.99,,2013-09-19 00:52:00,
2013-09-18 18:00:00,89.0,0.0,29.78,SSE,156,5.0,12.0,16,-99.99,,,-99.99,,2013-09-19 01:00:00,
2013-09-18 18:08:00,89.0,0.0,29.79,SSE,147,3.0,10.0,15,-99.99,,,-99.99,,2013-09-19 01:08:00,
2013-09-18 18:13:00,89.0,0.0,29.79,SSE,166,10.0,10.0,17,-99.99,,,-99.99,,2013-09-19 01:13:00,
2013-09-18 18:20:00,88.0,0.0,29.79,SSE,161,7.0,10.0,17,-99.99,,,-99.99,,2013-09-19 01:20:00,
2013-09-18 18:28:00,88.0,0.0,29.79,SSE,158,6.0,9.0,16,-99.99,,,-99.99,,2013-09-19 01:28:00,
2013-09-18 18:36:00,87.0,0.0,29.79,SSE,160,9.0,12.0,18,-99.99,,,-99.99,,2013-09-19 01:36:00,
2013-09-18 18:44:00,86.0,0.0,29.79,SSE,163,7.0,9.0,17,-99.99,,,-99.99,,2013-09-19 01:44:00,
2013-09-18 18:52:00,84.0,0.0,29.79,SSE,153,7.0,8.0,18,-99.99,,,-99.99,,2013-09-19 01:52:00,
2013-09-18 19:00:00,84.0,0.0,29.79,SSE,160,7.0,8.0,17,-99.99,,,-99.99,,2013-09-19 02:00:00,
2013-09-18 19:08:00,83.0,0.0,29.79,SSE,160,7.0,9.0,18,-99.99,,,-99.99,,2013-09-19 02:08:00,
2013-09-18 19:16:00,83.0,0.0,29.80,SSE,160,7.0,9.0,18,-99.99,,,-99.99,,2013-09-19 02:16:00,
2013-09-18 19:24:00,82.0,0.0,29.80,SSE,154,7.0,8.0,18,-99.99,,,-99.99,,2013-09-19 02:24:00,
2013-09-18 19:32:00,82.0,0.0,29.80,SSE,160,7.0,7.0,18,-99.99,,,-99.99,,2013-09-19 02:32:00,
2013-09-18 19:40:00,82.0,0.0,29.80,SSE,159,7.0,7.0,21,-99.99,,,-99.99,,2013-09-19 02:40:00,
2013-09-18 19:48:00,82.0,0.0,29.80,SSE,167,6.0,7.0,19,-99.99,,,-99.99,,2013-09-19 02:48:00,
2013-09-18 19:56:00,82.0,0.0,29.81,SSE,168,5.0,7.0,18,-99.99,,,-99.99,,2013-09-19 02:56:00,
2013-09-18 20:04:00,82.0,0.0,29.81,South,173,6.0,6.0,18,-99.99,,,-99.99,,2013-09-19 03:04:00,
2013-09-18 20:12:00,81.0,0.0,29.82,SSW,197,2.0,6.0,18,-99.99,,,-99.99,,2013-09-19 03:12:00,
2013-09-18 20:20:00,82.0,0.0,29.82,SSW,212,3.0,3.0,19,-99.99,,,-99.99,,2013-09-19 03:20:00,
2013-09-18 20:28:00,82.0,0.0,29.82,SSW,211,2.0,3.0,18,-99.99,,,-99.99,,2013-09-19 03:28:00,
2013-09-18 20:36:00,82.0,0.0,29.83,SSW,195,1.0,3.0,18,-99.99,,,-99.99,,2013-09-19 03:36:00,
2013-09-18 20:44:00,80.0,0.0,29.83,North,357,2.0,3.0,18,-99.99,,,-99.99,,2013-09-19 03:44:00,
2013-09-18 20:52:00,79.0,0.0,29.83,North,357,3.0,7.0,19,-99.99,,,-99.99,,2013-09-19 03:52:00,
2013-09-18 21:01:00,79.0,0.0,29.84,North,350,5.0,6.0,19,-99.99,,,-99.99,,2013-09-19 04:01:00,
2013-09-18 21:04:00,79.0,0.0,29.84,North,353,5.0,7.0,20,-99.99,,,-99.99,,2013-09-19 04:04:00,
2013-09-18 21:08:00,78.0,0.0,29.84,North,350,5.0,7.0,20,-99.99,,,-99.99,,2013-09-19 04:08:00,
2013-09-18 21:16:00,78.0,0.0,29.84,North,351,3.0,7.0,20,-99.99,,,-99.99,,2013-09-19 04:16:00,
2013-09-18 21:21:00,79.0,0.0,29.84,North,353,5.0,6.0,22,-99.99,,,-99.99,,2013-09-19 04:21:00,
2013-09-18 21:28:00,79.0,0.0,29.85,NNW,340,3.0,7.0,19,-99.99,,,-99.99,,2013-09-19 04:28:00,
2013-09-18 21:36:00,79.0,0.0,29.85,NE,40,5.0,7.0,18,-99.99,,,-99.99,,2013-09-19 04:36:00,
2013-09-18 21:44:00,78.0,0.0,29.85,ENE,58,5.0,7.0,18,-99.99,,,-99.99,,2013-09-19 04:44:00,
2013-09-18 21:52:00,77.0,0.0,29.85,NE,50,5.0,6.0,17,-99.99,,,-99.99,,2013-09-19 04:52:00,
2013-09-18 21:56:00,77.0,0.0,29.85,NE,49,5.0,6.0,16,-99.99,,,-99.99,,2013-09-19 04:56:00,
2013-09-18 22:04:00,77.0,0.0,29.85,ENE,67,3.0,6.0,16,-99.99,,,-99.99,,2013-09-19 05:04:00,
2013-09-18 22:09:00,77.0,0.0,29.85,NE,48,3.0,6.0,16,-99.99,,,-99.99,,2013-09-19 05:09:00,
2013-09-18 22:16:00,77.0,0.0,29.85,NE,39,2.0,5.0,16,-99.99,,,-99.99,,2013-09-19 05:16:00,
2013-09-18 22:24:00,78.0,0.0,29.85,NE,35,1.0,5.0,17,-99.99,,,-99.99,,2013-09-19 05:24:00,
2013-09-18 22:32:00,77.0,0.0,29.85,NNW,347,6.0,7.0,16,-99.99,,,-99.99,,2013-09-19 05:32:00,
2013-09-18 22:40:00,77.0,0.0,29.85,North,354,1.0,7.0,17,-99.99,,,-99.99,,2013-09-19 05:40:00,
2013-09-18 22:48:00,77.0,0.0,29.85,NE,34,2.0,5.0,16,-99.99,,,-99.99,,2013-09-19 05:48:00,
2013-09-18 22:53:00,77.0,0.0,29.86,North,356,2.0,5.0,16,-99.99,,,-99.99,,2013-09-19 05:53:00,
2013-09-18 23:00:00,78.0,0.0,29.85,North,357,5.0,6.0,15,-99.99,,,-99.99,,2013-09-19 06:00:00,
2013-09-18 23:08:00,78.0,0.0,29.85,North,2,6.0,9.0,15,-99.99,,,-99.99,,2013-09-19 06:08:00,
2013-09-18 23:13:00,78.0,0.0,29.85,North,354,7.0,9.0,15,-99.99,,,-99.99,,2013-09-19 06:13:00,
2013-09-18 23:20:00,78.0,0.0,29.85,NNW,346,7.0,10.0,15,-99.99,,,-99.99,,2013-09-19 06:20:00,
2013-09-18 23:28:00,77.0,0.0,29.85,NNE,23,3.0,10.0,15,-99.99,,,-99.99,,2013-09-19 06:28:00,
2013-09-18 23:36:00,77.0,0.0,29.85,North,356,2.0,8.0,15,-99.99,,,-99.99,,2013-09-19 06:36:00,
2013-09-18 23:44:00,77.0,0.0,29.86,NNW,347,7.0,9.0,17,-99.99,,,-99.99,,2013-09-19 06:44:00,
2013-09-18 23:52:00,77.0,0.0,29.85,North,1,6.0,9.0,16,-99.99,,,-99.99,,2013-09-19 06:52:00,